Погода Александров Гай

Погода Александров Гай : погода сейчас, прогноз погоды и архив. Всё, что Вы хотите узнать о погоде Александров Гай!

Хотите узнать прогноз погоды Александров Гай? Тогда Вам сюда: Погода Александров Гай

Поиск расширенной информации на нашем сайте:

Другие новости

Новости СМИ2

Главная страница сайта

Новости сайта

02.10.2013

Напоминаем, что на нашем новом сайте вы можете получить высокодетализированные прогнозы погоды по пунктам России, СНГ и мира (включающие важные для авиации метеовеличины, такие как направление и скорость ветра, видимость, явления погоды, количество и форма облачности, нижняя и верхняя граница облачности), а также ознакомиться с разнообразными материалами по авиационной метеорологии и подборкой полезных ссылок на эту тему.

Сайт Метеоцентр.Азия посвящён разработке технологий оптимизации авиаметеорологического обслуживания, включая проектирование и перспективное создание нескольких автоматизированных авиаметеорологических систем:
- система выпуска высокодетальных прогностических карт явлений погоды для нижнего воздушного пространства по России и ближнему зарубежью;
- система верификации прогнозов TAF (выпускаемых синоптиками официальных АМСГ РФ и ближнего зарубежья) и AUTOTAF (выпускаемых сайтом Метеоцентр.Азия) - выявление ошибок, онлайн-сопоставление с фактической погодой METAR, автоматическое внесение коррективов в прогнозы при резком отклонении фактической погоды от прогноза, подсчёт оправдываемости прогнозов по элементам и в целом;
- система обработки, анализа и отображения авиаметеорологической информации для применения провайдерами метеорологической информации.

Рекомендуем: ggddzz.ru - ГДЗ, решебники

Погода Александров Гай - сегодня

Время (UTC), дата Ветер
(°,м/с) 
Видим.   Явления Облачность Т
(°С)
Тd
(°С)
f(%) Тe
(°С)
Pmin
(гПа)
dP
(гПа)
Po
(мм)
O2
(г/м3)
Тmin Tmax R s Состояние
почвы
18 16.01.17 100 (В) 10 км    ясно 
-18.4 -21 80 -23  1031.7  -0.2  771  335           
21 16.01.17 100 (В) 10 км    ясно 
-19.3 -21.7 81 -22  1032.1  0.4  771  336           
00 17.01.17 080 (В) 10 км    ясно 
-19.3 -21.6 82 -22  1032.1  0.1  772  336           
03 17.01.17 090 (В) 10 км    4/0 средняя, верхняя 
[Ac As|Ci fib]
-19.5 -22.1 80 -22  1032  -0.2  771  336  -19.5      20  равномерный
сухой снег
100% 
06 17.01.17 110 (В) 10 км    4/0 средняя, верхняя 
[Ac trans|Ci fib]
-18.8 -21.8 77 -21  1032.6  0.6  772  336  -20.6         
09 17.01.17 090 (В) 10 км    3/0 верхняя 
[Ci fib]
-13.9 -18.8 66 -14  1032.3  -0.2  772  329           
12 17.01.17 040 (СВ) 10 км    3/0 верхняя 
[Ci fib]
-14.4 -18.4 72 -17  1032.3  772  330           
15 17.01.17 070 (В) 10 км    3/0 верхняя 
[Ci fib]
-16.7 -19.1 82 -19  1032.4  0.1  772  333    -13.1       
18 17.01.17 040 (СВ) 10 км    ясно 
-18.6 -21.2 80 -19  1032.5  0.1  772  335           
21 17.01.17 360 (С) 10 км    3/0 верхняя 
[Ci sp]
-20.9 -23.2 82 -24  1032.3  -0.3  772  338           
00 18.01.17 340 (С) 10 км    10/0 верхняя 
[Ci fib]
-21.3 -24 79 -22  1032.6  0.4  772  339           
03 18.01.17 330 (СЗ) 10 км    10/0 средняя 
[As op]
-20.2 -22.9 79 -20  1032.3  -0.3  772  337  -21.6      20  равномерный
сухой снег
100% 
06 18.01.17 340 (С) 10 км    9/0 средняя 
[Ac As]
-16.2 -18.9 80 -16  1033.3  1.1  772  332           
09 18.01.17 290 (З) 10 км    10/0 средняя 
[As op]
-12.3 -16 74 -12  1033.3  772  327           
12 18.01.17 340 (С) 10 км    10/0 средняя 
[As op]
-9.7 -12.4 81 -11  1032.9  -0.3  772  324           
15 18.01.17 330 (СЗ) 10 км    4/0 средняя 
[Ac As]
-11.8 -14.1 83 -14  1033.3  0.3  772  327    -9.4       
18 18.01.17 340 (С) 10 км    3/0 верхняя 
[Ci fib]
-16.8 -18.8 84 -19  1034  0.7  773  333           
21 18.01.17 330 (СЗ) 10 км    1/0 верхняя 
[Ci fib]
-18.3 -20.3 84 -22  1033.5  -0.5  773  335           
00 19.01.17 010 (С) 10 км  [диам. изморози 1 мм]  9/0 верхняя 
[Ci fib]
-19.9 -22 83 -20  1033.6  773  337           
03 19.01.17 270 (З) 10 км  [диам. изморози 1 мм]  10/10 700 м 
[Sc]
-14.9 -16.8 85 -17  1033.1  -0.4  772  331  -20.9      19  равномерный
сухой снег
100% 
06 19.01.17 260 (З) 4000 м  слаб. снег  10/10 500 м 
[Frnb]
-10.4 -12 88 -12  1033.1  0.1  772  325           
09 19.01.17 270 (З) 10 км  {снег} [диам. изморози 1 мм]  3/0 верхняя 
[Ci sp]
-8.2 -11 80 -11  1032.3  -0.8  772  322           
12 19.01.17 260 (З) 10 км    ясно 
-10.4 -12.8 83 -13  1031.3  -1  771  324           
15 19.01.17 250 (З) 10 км    ясно 
-15.3 -17.2 85 -19  1030.5  -0.9  770  330    -7.5  0.4     
18 19.01.17 250 (З) 10 км  [диам. изморози 1 мм]  ясно 
-13.7 -15.4 87 -17  1029.6  -0.9  770  328           
Время (UTC), дата Ветер
(°,м/с) 
Видим.   Явления Облачность Т
(°С)
Тd
(°С)
f(%) Тe
(°С)
Pmin
(гПа)
dP
(гПа)
Po
(мм)
O2
(г/м3)
Тmin Tmax R s Состояние
почвы

Для получения пояснительной информации подведите курсор к названию столбца.

ПОГОДА Александров Гай - архив

Всё, что Вы хотите узнать о погоде Александров Гай - удобно и подробно!

Выберите нужную дату (начиная с 1 января 2015* года) и нажмите кнопку "Найти".
Будут отображены архивные сводки погоды по пункту Александров Гай, начиная с указанной даты.


Отображать данные в формате CSV (для использования в таблицах Excel)


Внимание! Наш архив погоды предназначен исключительно для личного некоммерческого использования в познавательных целях. Если Вам необходимы официальные справки о состоянии погоды (для производственных, юридических, коммерческих и т.п. целей), обращайтесь в органы Росгидромета.

*Примечание: данная дата относится к архиву по метеостанциям СССР (Россия, СНГ, Балтия).
Архив по метеостанциям Зарубежной Европы и Азии (кроме Китая) хранится 10 дней, по другим регионам земного шара (Китай, Африка, Америка, Австралия, Океания) - 1 день.

Александров Гай - район местоположения метеостанции


Название, широта, долгота, высота метеостанции:
Александров Гай 50.2°ш. 48.6°д. 25 м над ур. моря [Российская Федерация]

Дополнительная информация

В oтличие oт бoльшинства пoгoдных сайтoв мы публикуем пoдрoбную метеoинфoрмацию в детальнoм прoфессиoнальнoм фoрмате.

Характеристики температуры и влажнoсти вoздуха измеряются на высoте 2 м в тени вдали oт зданий и деревьев.
Скoрoсть ветра измеряется на высoте 10 м (на урoвне рoста челoвека скoрoсть ветра ниже в 1.5-2 раза). Если метеoстанция нахoдится в гoрoде или в лесу, тo скoрoсть ветра занижена на 2-4 м/с пo сравнению с oткрытым местoм. Скoрoсть ветра над акватoриями крупных рек и oзёр, а также на вершинах хoлмoв на 2-5 м/с выше, чем в oбычных услoвиях.
Атмoсфернoе давление в разных тoчках местнoсти мoжет значительнo oтличаться oт давления на метеoстанции, в зависимoсти oт услoвий рельефа (при пoдъёме на 10 м давление пoнижается примернo на 1 мм рт.ст.).